Le Mars, IA

9:32 PM CST on November 17, 2019 (GMT -0600)
Le Mars Municipal

Weather History for KLRJ - September, 2019

Change the Weather History Date:

Friday, September 27, 2019

  Actual Average Record
Temperature  
Mean Temperature 61 °F -  
Max Temperature 71 °F 73 °F 90 °F (1983)
Min Temperature 51 °F 45 °F 28 °F (2012)
Degree Days  
Heating Degree Days 4    
Growing Degree Days 11 (Base 50)    
Moisture  
Dew Point 55 °F    
Average Humidity 74    
Maximum Humidity 100    
Minimum Humidity 46    
Precipitation  
Precipitation 0.00 in - - ()
Sea Level Pressure  
Sea Level Pressure 29.72 in    
Wind  
Wind Speed 10 mph (North)    
Max Wind Speed 21 mph    
Max Gust Speed 25 mph    
Visibility 10 miles    
Events      
Averages and records for this station are not official NWS values.
T = Trace of Precipitation, MM = Missing Value Source: NWS Daily Summary

Daily Weather History Graph

Daily Weather History Graph

Search for Another Location

Airport or City:

Astronomy

Sep. 27, 2019 Rise Set
Actual Time 7:17 AM CDT 7:13 PM CDT
Civil Twilight 6:49 AM CDT 7:41 PM CDT
Nautical Twilight 6:16 AM CDT 8:14 PM CDT
Astronomical Twilight 5:42 AM CDT 8:47 PM CDT
Moon 5:36 AM CDT (9/27) 7:07 PM CDT (9/27)
Length of Visible Light 12h 52m
Length of Day
11h 56m
Waning Crescent, 2% of the Moon is Illuminated
Sep 27
Waning Crescent
Sep 28
New
Oct 5
First Quarter
Oct 13
Full
Oct 21
Last Quarter

Hourly Weather History & Observations

Time (CDT) Temp. Dew Point Humidity Pressure Visibility Wind Dir Wind Speed Gust Speed Precip Events Conditions
12:15 AM 64.4 °F 53.6 °F 68% 29.62 in 10.0 mi SSE 10.4 mph - N/A   Overcast
12:35 AM 66.2 °F 55.4 °F 68% 29.62 in 10.0 mi South 10.4 mph - N/A   Overcast
12:55 AM 66.2 °F 55.4 °F 68% 29.61 in 10.0 mi South 12.7 mph - N/A   Overcast
1:15 AM 66.2 °F 55.4 °F 68% 29.59 in 10.0 mi South 12.7 mph - N/A   Overcast
1:35 AM 66.2 °F 55.4 °F 68% 29.59 in 10.0 mi South 13.8 mph - N/A   Overcast
1:55 AM 66.2 °F 57.2 °F 73% 29.58 in 10.0 mi South 15.0 mph - N/A   Overcast
2:15 AM 66.2 °F 57.2 °F 73% 29.58 in 10.0 mi South 10.4 mph 18.4 mph N/A   Overcast
2:35 AM 64.4 °F 59.0 °F 83% 29.56 in 10.0 mi South 11.5 mph - N/A   Mostly Cloudy
2:55 AM 64.4 °F 59.0 °F 83% 29.57 in 10.0 mi South 8.1 mph - N/A   Scattered Clouds
3:15 AM 64.4 °F 60.8 °F 88% 29.57 in 10.0 mi South 9.2 mph - N/A   Mostly Cloudy
3:35 AM 64.4 °F 60.8 °F 88% 29.58 in 10.0 mi SSW 9.2 mph - N/A   Scattered Clouds
3:55 AM 62.6 °F 60.8 °F 94% 29.57 in 10.0 mi South 10.4 mph - N/A   Clear
4:15 AM 62.6 °F 62.6 °F 100% 29.56 in 10.0 mi South 10.4 mph - N/A   Clear
4:35 AM 62.6 °F 62.6 °F 100% 29.57 in 10.0 mi South 6.9 mph - N/A   Scattered Clouds
4:55 AM 62.6 °F 62.6 °F 100% 29.57 in 10.0 mi SSW 6.9 mph - N/A   Overcast
5:15 AM 64.4 °F 62.6 °F 94% 29.58 in 10.0 mi SW 4.6 mph - N/A   Overcast
5:55 AM 64.4 °F 62.6 °F 94% 29.59 in 10.0 mi Variable 3.5 mph - N/A   Overcast
6:15 AM 64.4 °F 62.6 °F 94% 29.59 in 10.0 mi Calm Calm - N/A   Overcast
6:35 AM 64.4 °F 62.6 °F 94% 29.60 in 10.0 mi Calm Calm - N/A   Overcast
6:55 AM 64.4 °F 64.4 °F 100% 29.61 in 9.0 mi Calm Calm - N/A   Overcast
7:15 AM 62.6 °F 62.6 °F 100% 29.61 in 10.0 mi Calm Calm - N/A   Overcast
7:35 AM 62.6 °F 62.6 °F 100% 29.61 in 10.0 mi North 3.5 mph - N/A   Overcast
7:55 AM 62.6 °F 62.6 °F 100% 29.62 in 10.0 mi Calm Calm - N/A   Mostly Cloudy
8:15 AM 62.6 °F 62.6 °F 100% 29.61 in 10.0 mi Calm Calm - N/A   Scattered Clouds
8:35 AM 62.6 °F 62.6 °F 100% 29.62 in 10.0 mi WNW 5.8 mph - N/A   Clear
8:55 AM 64.4 °F 62.6 °F 94% 29.63 in 10.0 mi NW 5.8 mph - N/A   Clear
9:15 AM 64.4 °F 59.0 °F 83% 29.63 in 10.0 mi Variable 6.9 mph - N/A   Clear
9:35 AM 64.4 °F 59.0 °F 83% 29.65 in 10.0 mi NNW 8.1 mph - N/A   Clear
9:55 AM 64.4 °F 59.0 °F 83% 29.65 in 10.0 mi NNW 6.9 mph 13.8 mph N/A   Clear
10:15 AM 66.2 °F 57.2 °F 73% 29.65 in 10.0 mi NNW 13.8 mph - N/A   Clear
10:35 AM 66.2 °F 57.2 °F 73% 29.67 in 10.0 mi North 12.7 mph 24.2 mph N/A   Clear
10:55 AM 66.2 °F 55.4 °F 68% 29.67 in 10.0 mi North 15.0 mph 20.7 mph N/A   Clear
11:15 AM 68.0 °F 55.4 °F 64% 29.69 in 10.0 mi North 16.1 mph - N/A   Clear
11:35 AM 68.0 °F 55.4 °F 64% 29.69 in 10.0 mi North 17.3 mph 25.3 mph N/A   Clear
11:55 AM 68.0 °F 53.6 °F 60% 29.68 in 10.0 mi North 20.7 mph - N/A   Clear
12:15 PM 69.8 °F 51.8 °F 53% 29.70 in 10.0 mi North 16.1 mph - N/A   Clear
12:35 PM 69.8 °F 51.8 °F 53% 29.71 in 10.0 mi North 11.5 mph 21.9 mph N/A   Clear
12:55 PM 69.8 °F 51.8 °F 53% 29.71 in 10.0 mi North 12.7 mph 19.6 mph N/A   Clear
1:15 PM 71.6 °F 51.8 °F 50% 29.71 in 10.0 mi NNW 10.4 mph - N/A   Clear
1:35 PM 69.8 °F 51.8 °F 53% 29.72 in 10.0 mi NNW 8.1 mph - N/A   Clear
1:55 PM 69.8 °F 50.0 °F 49% 29.71 in 10.0 mi North 13.8 mph - N/A   Clear
2:15 PM 69.8 °F 50.0 °F 49% 29.72 in 10.0 mi North 10.4 mph 18.4 mph N/A   Clear
2:55 PM 71.6 °F 50.0 °F 46% 29.72 in 10.0 mi North 15.0 mph - N/A   Clear
3:15 PM 69.8 °F 48.2 °F 46% 29.73 in 10.0 mi North 10.4 mph 20.7 mph N/A   Clear
3:35 PM 69.8 °F 48.2 °F 46% 29.74 in 10.0 mi North 13.8 mph - N/A   Clear
3:55 PM 68.0 °F 48.2 °F 49% 29.75 in 10.0 mi North 12.7 mph 19.6 mph N/A   Clear
4:15 PM 68.0 °F 48.2 °F 49% 29.76 in 10.0 mi North 15.0 mph - N/A   Clear
4:35 PM 68.0 °F 48.2 °F 49% 29.77 in 10.0 mi North 12.7 mph - N/A   Clear
4:55 PM 66.2 °F 48.2 °F 52% 29.78 in 10.0 mi North 15.0 mph - N/A   Clear
5:15 PM 66.2 °F 50.0 °F 56% 29.78 in 10.0 mi North 10.4 mph 17.3 mph N/A   Clear
5:35 PM 66.2 °F 50.0 °F 56% 29.80 in 10.0 mi North 8.1 mph - N/A   Clear
5:55 PM 66.2 °F 51.8 °F 60% 29.81 in 10.0 mi NNE 8.1 mph - N/A   Clear
6:15 PM 66.2 °F 51.8 °F 60% 29.82 in 10.0 mi NNE 6.9 mph - N/A   Clear
6:35 PM 64.4 °F 51.8 °F 64% 29.82 in 10.0 mi NNE 5.8 mph - N/A   Clear
6:55 PM 64.4 °F 51.8 °F 64% 29.83 in 10.0 mi North 8.1 mph - N/A   Clear
7:15 PM 62.6 °F 50.0 °F 63% 29.83 in 10.0 mi North 6.9 mph - N/A   Clear
7:35 PM 62.6 °F 51.8 °F 68% 29.85 in 10.0 mi NNW 10.4 mph 16.1 mph N/A   Clear
7:55 PM 60.8 °F 50.0 °F 68% 29.85 in 10.0 mi North 11.5 mph 17.3 mph N/A   Clear
8:15 PM 59.0 °F 50.0 °F 72% 29.87 in 10.0 mi North 10.4 mph 16.1 mph N/A   Clear
8:35 PM 59.0 °F 51.8 °F 77% 29.88 in 10.0 mi North 9.2 mph - N/A   Clear
8:55 PM 59.0 °F 51.8 °F 77% 29.89 in 10.0 mi North 6.9 mph 13.8 mph N/A   Clear
9:15 PM 57.2 °F 51.8 °F 82% 29.89 in 10.0 mi North 6.9 mph - N/A   Clear
9:35 PM 57.2 °F 51.8 °F 82% 29.90 in 10.0 mi North 6.9 mph - N/A   Clear
9:55 PM 55.4 °F 51.8 °F 88% 29.91 in 10.0 mi North 11.5 mph - N/A   Clear
10:15 PM 55.4 °F 51.8 °F 88% 29.92 in 10.0 mi North 13.8 mph 19.6 mph N/A   Clear
10:35 PM 53.6 °F 50.0 °F 88% 29.94 in 10.0 mi North 12.7 mph - N/A   Clear
10:55 PM 53.6 °F 50.0 °F 88% 29.94 in 10.0 mi North 12.7 mph - N/A   Scattered Clouds
11:15 PM 51.8 °F 48.2 °F 88% 29.96 in 10.0 mi North 13.8 mph 21.9 mph N/A   Partly Cloudy
11:35 PM 51.8 °F 48.2 °F 88% 29.97 in - North 13.8 mph 19.6 mph N/A   Clear
11:55 PM 51.8 °F 48.2 °F 88% 29.98 in 10.0 mi NNE 11.5 mph - N/A   Partly Cloudy